GW3529 Weather Reports


Display with metric or nautical units.
time (UTC)temp
F
wind
direction
speed
MPH
gust
MPH
rain 1hr
in
rain 24hr
in
rain mn
in
humidity
%
barometer
mb
20260906070047 72 189 3.0 7.0 0.00 0.00 0.00 62 1005.5
20260906064545 73 189 3.0 6.0 0.00 0.00 0.00 60 1005.6
20260906063044 72 185 0.0 0.0 0.00 0.00 0.00 61 1005.5
20260906061542 72 184 0.0 0.0 0.00 0.00 0.00 58 1005.6
20260906060038 72 184 0.0 0.0 0.00 0.00 0.00 57 1005.9
20260906054539 71 184 0.0 4.0 0.00 0.00 0.00 57 1006.1
20260906053037 71 184 0.0 2.0 0.00 0.00 0.00 56 1006.2
20260906051533 73 184 0.0 0.0 0.00 0.00 0.00 53 1006.5
20260906050034 73 184 3.0 10.0 0.00 0.00 0.00 53 1006.5
20260906044531 73 136 2.0 7.0 0.00 0.00 0.00 53 1006.4
20260906043030 75 228 3.0 5.0 0.00 0.00 0.00 51 1006.0
20260906041529 77 185 1.0 3.0 0.00 0.00 0.00 47 1006.0
20260906040028 76 185 0.0 2.0 0.00 0.00 0.00 48 1006.2
20260906034528 76 185 0.0 0.0 0.00 0.00 0.00 47 1006.3
20260906033026 78 185 0.0 1.0 0.00 0.00 0.00 45 1006.4
20260906031526 81 185 2.0 7.0 0.00 0.00 0.00 41 1006.3
20260906030025 81 182 3.0 9.0 0.00 0.00 0.00 41 1006.0
20260906024524 81 178 8.0 10.0 0.00 0.00 0.00 41 1005.9
20260906023025 79 188 2.0 5.0 0.00 0.00 0.00 44 1005.5
20260906021535 80 182 4.0 7.0 0.00 0.00 0.00 43 1005.4
20260906020022 81 173 7.0 9.0 0.00 0.00 0.00 42 1005.2
20260906014522 81 180 5.0 7.0 0.00 0.00 0.00 39 1005.2
20260906013034 82 185 4.0 7.0 0.00 0.00 0.00 37 1005.4
20260906011520 83 169 4.0 7.0 0.00 0.00 0.00 36 1005.4
20260906010019 83 188 4.0 9.0 0.00 0.00 0.00 35 1005.5
20260906004518 85 172 13.0 20.0 0.00 0.00 0.00 33 1005.8
20260906003022 86 196 5.0 12.0 0.00 0.00 0.00 32 1005.7
20260906001517 87 188 5.0 11.0 0.00 0.00 0.00 32 1005.7
20260906000017 87 198 2.0 7.0 0.00 0.00 0.00 32 1005.4
20260905234515 87 205 4.0 9.0 0.00 0.00 0.00 32 1005.3
20260905233019 89 199 5.0 10.0 0.00 0.00 0.00 28 1005.0
20260905231514 90 225 7.0 11.0 0.00 0.00 0.00 26 1004.7
20260905230014 88 205 4.0 9.0 0.00 0.00 0.00 28 1004.7
20260905224517 88 204 2.0 10.0 0.00 0.00 0.00 31 1004.9
20260905223013 89 200 6.0 12.0 0.00 0.00 0.00 29 1004.7
20260905221513 89 221 4.0 8.0 0.00 0.00 0.00 29 1004.6
20260905220011 89 134 3.0 11.0 0.00 0.00 0.00 27 1004.7
20260905214510 90 143 3.0 8.0 0.00 0.00 0.00 29 1004.7
20260905213009 90 103 5.0 10.0 0.00 0.00 0.00 27 1004.7
20260905211508 91 155 1.0 9.0 0.00 0.00 0.00 25 1004.8
20260905210008 92 193 2.0 6.0 0.00 0.00 0.00 21 1004.8
20260905204511 94 228 1.0 6.0 0.00 0.00 0.00 21 1004.9
20260905203005 94 261 8.0 14.0 0.00 0.00 0.00 22 1005.0
20260905201502 90 212 9.0 17.0 0.00 0.00 0.00 24 1005.7
20260905194557 86 193 4.0 9.0 0.00 0.00 0.00 30 1006.3
20260905193055 85 198 4.0 8.0 0.00 0.00 0.00 32 1005.9
20260905191555 84 164 8.0 14.0 0.00 0.00 0.00 31 1005.4
20260905190100 83 180 10.0 21.0 0.00 0.00 0.00 31 1006.5
20260905184553 85 168 8.0 12.0 0.00 0.00 0.00 29 1006.8
20260905183109 87 265 2.0 9.0 0.00 0.00 0.00 27 1006.4
20260905181549 86 199 1.0 9.0 0.00 0.00 0.00 30 1006.4
20260905180050 86 184 7.0 14.0 0.00 0.00 0.00 30 1006.6
20260905174544 87 164 4.0 8.0 0.00 0.00 0.00 27 1006.3
20260905173042 89 327 1.0 5.0 0.00 0.00 0.00 26 1005.9
20260905171546 88 332 0.0 10.0 0.00 0.00 0.00 25 1005.8
20260905170035 84 54 3.0 10.0 0.00 0.00 0.00 26 1006.0
20260905164533 84 355 1.0 11.0 0.00 0.00 0.00 27 1005.9
20260905163029 83 26 5.0 11.0 0.00 0.00 0.00 28 1005.7
20260905161527 82 340 4.0 10.0 0.00 0.00 0.00 30 1005.7
20260905160026 81 5 4.0 10.0 0.00 0.00 0.00 31 1005.8
20260905154521 81 348 7.0 10.0 0.00 0.00 0.00 31 1005.7
20260905153022 81 349 6.0 11.0 0.00 0.00 0.00 34 1005.6
20260905151516 81 336 7.0 11.0 0.00 0.00 0.00 33 1005.6
20260905150015 79 360 7.0 13.0 0.00 0.00 0.00 33 1005.7
20260905144522 78 15 6.0 11.0 0.00 0.00 0.00 35 1005.8
20260905143011 76 30 9.0 14.0 0.00 0.00 0.00 36 1005.7
20260905141509 78 26 8.0 13.0 0.00 0.00 0.00 37 1005.2
20260905140005 79 343 8.0 13.0 0.00 0.00 0.00 36 1004.7
20260905134502 77 180 1.0 5.0 0.00 0.00 0.00 42 1004.2
20260905133059 75 180 1.0 2.0 0.00 0.00 0.00 44 1003.8
20260905131615 74 180 5.0 6.0 0.00 0.00 0.00 44 1003.8
20260905130006 74 178 0.0 0.0 0.00 0.00 0.00 40 1003.6
20260905124510 78 178 0.0 4.0 0.00 0.00 0.00 35 1003.3
20260905123002 77 174 3.0 9.0 0.00 0.00 0.00 36 1003.1
20260905121502 77 165 5.0 7.0 0.00 0.00 0.00 36 1003.0
20260905120002 76 67 3.0 10.0 0.00 0.00 0.00 37 1002.8
20260905114600 74 200 7.0 11.0 0.00 0.00 0.00 40 1002.8
20260905114500 74 242 7.0 10.0 0.00 0.00 0.00 40 1002.8
20260905113057 76 203 4.0 8.0 0.00 0.00 0.00 38 1003.0
20260905111557 79 288 4.0 10.0 0.00 0.00 0.00 33 1002.9
20260905110056 83 173 5.0 9.0 0.00 0.00 0.00 30 1003.1
20260905104557 83 203 8.0 12.0 0.00 0.00 0.00 30 1003.3
20260905103054 82 205 3.0 11.0 0.00 0.00 0.00 30 1003.3
20260905101551 82 236 5.0 8.0 0.00 0.00 0.00 30 1003.4
20260905100112 82 193 5.0 8.0 0.00 0.00 0.00 30 1003.4
20260905094550 82 193 4.0 11.0 0.00 0.00 0.00 30 1003.4
20260905093048 82 192 5.0 10.0 0.00 0.00 0.00 30 1003.5
20260905091551 82 209 4.0 8.0 0.00 0.00 0.00 29 1003.5
20260905090104 82 276 4.0 15.0 0.00 0.00 0.00 29 1003.6
20260905084543 82 222 4.0 10.0 0.00 0.00 0.00 29 1003.6
20260905083049 82 237 6.0 13.0 0.00 0.00 0.00 29 1003.7
20260905081547 82 199 7.0 12.0 0.00 0.00 0.00 29 1003.7
20260905080047 82 196 4.0 11.0 0.00 0.00 0.00 29 1003.7
20260905074538 80 189 4.0 10.0 0.00 0.00 0.00 30 1003.7
20260905073037 77 211 7.0 10.0 0.00 0.00 0.00 34 1003.8
20260905071532 77 213 2.0 7.0 0.00 0.00 0.00 35 1003.6